User: anonymous   Login
Location: *
(32.8140°S, 174.6161°E)
Time: 11:17:38
(UTC+00:00)
Language:

USA 215 - Orbit

View from above orbital plane
View from above orbital plane
View from above satellite
View from above satellite

Ground track
Ground track

The orbit data is extracted from the following two-line orbital elements,

1 37162U 10046A   20055.12239502 0.00000000  00000-0  00000-0 0    09
2 37162 122.9979 342.7070 0007955  27.0172 332.9827 13.41420965    07
Epoch (UTC): 24 February 2020 02:56:14
Eccentricity: 0.0007955
inclination: 122.9979°
perigee height: 1098 km
apogee height: 1110 km
right ascension of ascending node: 342.7070°
argument of perigee: 27.0172°
revolutions per day: 13.41420965
mean anomaly at epoch: 332.9827°
orbit number at epoch: 0

The dashed part of the orbit path shows where the satellite is in the earth's shadow,  

DLR